Simultaneous Nadir Overpasses (SNOs) Predictions

Prediction of SNOs between NOAA-19 and METOP-C Satellite Orbit:

Table of predicted SNOs for the next 14.0 days since TLE Epoch: 4/5/2025
Index Date (NOAA-19) Time (NOAA-19) Lat,Lon (NOAA-19) SZA (NOAA-19 ) Date (METOP-C) Time (METOP-C) Lat,Lon (METOP-C) SZA (METOP-C ) Distance(km) Time Diff (sec)
1 04/11/2025 14:29:53 79.74, 47.93 80.72 04/11/2025 14:30:59 79.74, 47.86 80.76 1.71 66
2 04/11/2025 15:20:44 -79.69,-144.32 99.21 04/11/2025 15:21:38 -79.69,-144.32 99.17 0.15 54
3 04/11/2025 16:11:46 79.63, 23.49 80.88 04/11/2025 16:12:17 79.63, 23.50 80.90 0.19 31
4 04/11/2025 17:02:37 -79.58,-168.77 99.06 04/11/2025 17:02:56 -79.57,-168.69 99.03 1.93 19
5 04/11/2025 17:53:39 79.52, -0.97 81.04 04/11/2025 17:53:35 79.52, -0.87 81.05 2.03 4
6 04/11/2025 18:44:28 -79.41, 167.31 98.80 04/11/2025 18:44:13 -79.42, 167.19 98.84 2.75 15
7 04/11/2025 19:35:29 79.32, -24.63 81.34 04/11/2025 19:34:51 79.33, -24.74 81.29 2.68 38
8 04/11/2025 20:26:20 -79.27, 143.07 98.60 04/11/2025 20:25:30 -79.27, 143.03 98.64 0.87 50



Historial Predications of SNOs between NOAA-19 and METOP-C
